Погода в Корлики

Погода в Корлики : погода сейчас, прогноз погоды и архив. Всё, что Вы хотите узнать о погоде в Корлики!

Поиск расширенной информации на нашем сайте:

Другие новости

Новости СМИ2

Главная страница сайта

Новости сайта

03.07.2017

Напоминаем, что на нашем специализированном сайте Метеоцентр.Азия вы можете получить высокодетализированные автоматические прогнозы погоды по пунктам России, СНГ и мира в авиационном формате (включающие направление и скорость ветра, видимость, явления погоды, количество и форму облачности, нижнюю и верхнюю границу облачности).


Погода в Корлики - сегодня

Время (UTC), дата Ветер
(°,м/с) 
Видим.   Явления Облачность Т
(°С)
Тd
(°С)
f(%) Тe
(°С)
Pmin
(гПа)
dP
(гПа)
Po
(мм)
O2
(г/м3)
Тmin Tmax R s Состояние
почвы
12 20.02.18 тихо ()   н/о    н/о 
-23.5 -26.1 79 -24  1025.6  0.1  762  338           
18 20.02.18 тихо ()   10 км  [диам. изморози 1 мм]  6/0 верхняя 
[Cs]
-28.7 -31.9 74 -29  1025.6  0.1  762  345           
21 20.02.18 040 (СВ) 10 км  [диам. изморози 2 мм]  10/0 верхняя 
[Cs]
-28.8 -31.8 75 -29  1026.8  0.1  762  345           
00 21.02.18 060 (СВ) 10 км  [диам. изморози 2 мм]  10/0 верхняя 
[Cs]
-28.8 -32 74 -29  1027.3  0.5  762  345           
03 21.02.18 060 (СВ) 10 км  [диам. изморози 2 мм]  9/0 верхняя 
[Cs]
-28.2 -31.4 74 -29  1026.5  0.3  763  345  -29.5         
09 21.02.18 050 (СВ) 10 км  [диам. изморози 0 мм]  ясно 
-19.4 -23 73 -20  1027.7  0.2  763  333           
12 21.02.18 070 (В) н/о    н/о 
-23.8 -26.3 80 -24  1026.6  -0.2  763  339           
15 21.02.18 050 (СВ) 10 км    ясно 
-28.3 -31.4 75 -29  1027.3  -0.6  762  345    -19       
18 21.02.18 060 (СВ) 10 км    ясно 
-26.9 -29.6 78 -30  1026.4  -0.7  762  342           
21 21.02.18 060 (СВ) 10 км    ясно 
-26.7 -29.6 76 -27  1024.9  -0.5  761  342           
00 22.02.18 050 (СВ) 10 км    ясно 
-28.1 -31.2 75 -32  1025  -1  761  344           
03 22.02.18 060 (СВ) 10 км    10/0 верхняя 
[Cs]
-26.9 -29.9 76 -30  1023.3  -1.5  760  341  -28.8      63  равномерный
сухой снег
100% 
06 22.02.18 060 (СВ) н/о    н/о 
-21.2 -24.3 76 -24  1020.9  -1.3  759  333           
09 22.02.18 050 (СВ) 10 км    10/0 верхняя 
[Cs]
-18.2 -22.1 71 -21  1019.1  -1.7  757  329           
12 22.02.18 050 (СВ) н/о    н/о 
-20 -23.2 76 -23  1018.1  -1.1  757  331           
18 22.02.18 050 (СВ) 10 км    3/0 верхняя 
[Cs]
-22.7 -25.3 79 -26  1017.6  -0.8  755  334           
21 22.02.18 060 (СВ) 10 км    ясно 
-24.9 -27.7 78 -25  1016.9  -0.7  755  336           
00 23.02.18 050 (СВ) 10 км    4/0 верхняя 
[Cs]
-27.6 -30.5 76 -28  1016.6  -0.5  754  340           
03 23.02.18 060 (СВ) 10 км    8/0 верхняя 
[Cs]
-28.1 -31.2 75 -29  1016.3  -0.3  754  341  -29.7      62  равномерный
сухой снег
100% 
06 23.02.18 070 (В) н/о    н/о 
-23 -26.9 70 -26  1014.1  -0.9  754  333           
09 23.02.18 030 (СВ) 10 км    10/0 верхняя 
[Cs]
-20.7 -25 68 -21  1013.6  -0.4  753  330           
12 23.02.18 тихо ()   н/о    н/о 
-23.8 -26.6 78 -24  1013.8  0.1  753  334           
15 23.02.18 тихо ()   4000 м  слаб. снег  10/0 средняя 
[As trans]
-26.4 -29.6 74 -26  1013.4  -0.5  753  338    -20.2  0.7     
18 23.02.18 тихо ()   10 км  {снег}  4/0 верхняя 
[Ci fib]
-28.9 -32.2 73 -29  1014  -0.5  753  341           
21 23.02.18 тихо ()   10 км    ясно 
-33.3 -37.1 68 -33  1014.5  0.3  753  347           
Время (UTC), дата Ветер
(°,м/с) 
Видим.   Явления Облачность Т
(°С)
Тd
(°С)
f(%) Тe
(°С)
Pmin
(гПа)
dP
(гПа)
Po
(мм)
O2
(г/м3)
Тmin Tmax R s Состояние
почвы

Для получения пояснительной информации подведите курсор к названию столбца.

ПОГОДА в Корлики - архив

Всё, что Вы хотите узнать о погоде в Корлики - удобно и подробно!

Выберите нужную дату (начиная с 1 января 2015* года) и нажмите кнопку "Найти".
Будут отображены архивные сводки погоды по пункту Корлики, начиная с указанной даты.


Отображать данные в формате CSV (для использования в таблицах Excel)


Внимание! Наш архив погоды предназначен исключительно для личного некоммерческого использования в познавательных целях. Если Вам необходимы официальные справки о состоянии погоды (для производственных, юридических, коммерческих и т.п. целей), обращайтесь в органы Росгидромета.

*Примечание: данная дата относится к архиву по метеостанциям СССР (Россия, СНГ, Балтия).
Архив по метеостанциям Зарубежной Европы и Азии (кроме Китая) хранится 10 дней, по другим регионам земного шара (Китай, Африка, Америка, Австралия, Океания) - 1 день.

Корлики - район местоположения метеостанции


Название, широта, долгота, высота метеостанции:
Корлики 61.5°ш. 82.4°д. 80 м над ур. моря [Российская Федерация]

Дополнительная информация

В oтличие oт бoльшинства пoгoдных сайтoв мы публикуем пoдрoбную метеoинфoрмацию в детальнoм прoфессиoнальнoм фoрмате.

Характеристики температуры и влажнoсти вoздуха измеряются на высoте 2 м в тени вдали oт зданий и деревьев.
Скoрoсть ветра измеряется на высoте 10 м (на урoвне рoста челoвека скoрoсть ветра ниже в 1.5-2 раза). Если метеoстанция нахoдится в гoрoде или в лесу, тo скoрoсть ветра занижена на 2-4 м/с пo сравнению с oткрытым местoм. Скoрoсть ветра над акватoриями крупных рек и oзёр, а также на вершинах хoлмoв на 2-5 м/с выше, чем в oбычных услoвиях.
Атмoсфернoе давление в разных тoчках местнoсти мoжет значительнo oтличаться oт давления на метеoстанции, в зависимoсти oт услoвий рельефа (при пoдъёме на 10 м давление пoнижается примернo на 1 мм рт.ст.).